Location: Góry Miechowskie
(50.3599°N, 20.1803°E)
Time: 11:16:01
(UTC+00:00)

Cosmos 1844 Rocket - Pass Details

Date: 15 June 2024
Orbit: 825 x 843 km, 71.0° (Epoch: 15 July)

Event Time Altitude Azimuth Distance (km) Brightness Sun altitude
Exits shadow 01:17:29 - 194° (SSW) 2,585 4.7 -8.5°
Reaches altitude 10° 01:17:55 10° 193° (SSW) 2,427 4.5 -8.5°
Maximum altitude 01:23:23 63° 114° (ESE) 924 3.0 -7.9°
Drops below altitude 10° 01:28:53 10° 34° (NE) 2,437 6.9 -7.4°
Sets 01:31:21 0° 32° (NNE) 3,374 8.2 -7.1°
